Location: Bourg-d�Oueil
(42.8588°N, 0.4991°E)
Time: 01:14:35
(UTC+00:00)

Cosmos 1674 - Pass Details

Date: 16 June 2021
Orbit: 494 x 514 km, 82.5° (Epoch: 04 August)

Event Time Altitude Azimuth Distance (km) Brightness Sun altitude
Exits shadow 21:57:09 12° 222° (SW) 1,572 5.0 -18.1°
Maximum altitude 22:00:08 31° 284° (WNW) 887 4.2 -18.3°
Drops below altitude 10° 22:03:30 10° 348° (NNW) 1,703 6.5 -18.6°
Sets 22:05:47 0° 359° (N) 2,589 7.4 -18.8°
